• In Deutschland
  • Länderverzeichnis
  • Für 7 Tage
  • Wassertemperatur
  • Satellitenkarten
  • Wetterkarte
  • Widgets
  • user-avatar
    Anmelden

    Stündliche Wetter Kaiserslautern

    Heute, 18 Oktober, Mittwoch

    Zeit Temperatur Niederschläge Wind Luftdruck Luftfeuchtigkeit
    00:00 +13°C° 0 mm 1 m/S 740 mmHg 71%
    01:00 +13°C° 0 mm 1 m/S 740 mmHg 71%
    02:00 +13°C° 0 mm 1 m/S 739 mmHg 71%
    03:00 +12°C° 0 mm 1 m/S 739 mmHg 71%
    04:00 +12°C° 0 mm 1 m/S 739 mmHg 71%
    05:00 +12°C° 0 mm 1 m/S 739 mmHg 72%
    06:00 +11°C° 0 mm 1 m/S 738 mmHg 72%
    07:00 +11°C° 0 mm 1 m/S 738 mmHg 73%
    08:00 +13°C° 0 mm 2 m/S 738 mmHg 69%
    09:00 +15°C° 0 mm 2 m/S 738 mmHg 64%
    10:00 +16°C° 0 mm 3 m/S 739 mmHg 60%
    11:00 +17°C° 0 mm 3 m/S 738 mmHg 57%
    12:00 +19°C° 0 mm 3 m/S 738 mmHg 54%
    13:00 +20°C° 0 mm 3 m/S 738 mmHg 52%
    14:00 +20°C° 0 mm 2 m/S 738 mmHg 54%
    15:00 +20°C° 0 mm 2 m/S 737 mmHg 56%
    16:00 +21°C° 0 mm 1 m/S 737 mmHg 59%
    17:00 +19°C° 0 mm 1 m/S 737 mmHg 64%
    18:00 +16°C° 0 mm 1 m/S 737 mmHg 70%
    19:00 +14°C° 0 mm 1 m/S 737 mmHg 75%
    20:00 +14°C° 0 mm 1 m/S 737 mmHg 76%
    21:00 +14°C° 0 mm 1 m/S 737 mmHg 77%
    22:00 +13°C° 0 mm 1 m/S 737 mmHg 77%
    23:00 +13°C° 0 mm 1 m/S 737 mmHg 77%

    Morgen, 19 Oktober, Donnerstag

    Zeit Temperatur Niederschläge Wind Luftdruck Luftfeuchtigkeit
    00:00 +13°C° 0 mm 1 m/S 737 mmHg 77%
    01:00 +12°C° 0 mm 1 m/S 737 mmHg 77%
    02:00 +12°C° 0 mm 1 m/S 737 mmHg 77%
    03:00 +12°C° 0 mm 1 m/S 737 mmHg 77%
    04:00 +12°C° 0 mm 1 m/S 736 mmHg 76%
    05:00 +12°C° 0 mm 1 m/S 736 mmHg 76%
    06:00 +12°C° 0 mm 1 m/S 736 mmHg 75%
    07:00 +12°C° 0 mm 1 m/S 736 mmHg 74%
    08:00 +13°C° 0 mm 1 m/S 736 mmHg 70%
    09:00 +15°C° 0 mm 1 m/S 737 mmHg 66%
    10:00 +16°C° 0 mm 1 m/S 737 mmHg 61%
    11:00 +18°C° 0 mm 1 m/S 737 mmHg 59%
    12:00 +19°C° 0 mm 1 m/S 737 mmHg 57%
    13:00 +20°C° 0 mm 1 m/S 737 mmHg 54%
    14:00 +20°C° 0 mm 1 m/S 736 mmHg 56%
    15:00 +20°C° 0 mm 1 m/S 736 mmHg 57%
    16:00 +20°C° 0 mm 1 m/S 736 mmHg 58%
    17:00 +19°C° 0 mm 1 m/S 736 mmHg 63%
    18:00 +16°C° 0 mm 1 m/S 736 mmHg 67%
    19:00 +14°C° 0 mm 1 m/S 736 mmHg 71%
    20:00 +14°C° 0 mm 1 m/S 736 mmHg 71%
    21:00 +14°C° 0 mm 1 m/S 736 mmHg 71%
    22:00 +14°C° 0 mm 1 m/S 736 mmHg 72%
    23:00 +14°C° 0 mm 1 m/S 736 mmHg 72%

    übermorgen, 20 Oktober, Freitag

    Zeit Temperatur Niederschläge Wind Luftdruck Luftfeuchtigkeit
    00:00 +14°C° 0 mm 1 m/S 736 mmHg 72%
    01:00 +14°C° 0 mm 1 m/S 736 mmHg 72%
    02:00 +13°C° 0 mm 1 m/S 736 mmHg 75%
    03:00 +13°C° 0 mm 1 m/S 736 mmHg 77%
    04:00 +12°C° 0 mm 1 m/S 736 mmHg 80%
    05:00 +12°C° 0 mm 1 m/S 736 mmHg 79%
    06:00 +12°C° 0 mm 1 m/S 736 mmHg 79%
    07:00 +12°C° 0 mm 1 m/S 736 mmHg 79%
    08:00 +14°C° 0 mm 1 m/S 736 mmHg 74%
    09:00 +15°C° 0 mm 2 m/S 737 mmHg 70%
    10:00 +16°C° 0 mm 2 m/S 737 mmHg 65%
    11:00 +16°C° 0,1 mm 2 m/S 737 mmHg 66%
    12:00 +17°C° 0,1 mm 3 m/S 737 mmHg 67%
    13:00 +17°C° 0,1 mm 3 m/S 737 mmHg 68%
    14:00 +17°C° 0,2 mm 3 m/S 737 mmHg 70%
    15:00 +17°C° 0,2 mm 3 m/S 737 mmHg 73%
    16:00 +17°C° 0,2 mm 3 m/S 737 mmHg 75%
    17:00 +16°C° 0,1 mm 3 m/S 737 mmHg 79%
    18:00 +15°C° 0,1 mm 2 m/S 737 mmHg 82%
    19:00 +14°C° 0,1 mm 2 m/S 738 mmHg 86%
    20:00 +14°C° 0 mm 2 m/S 738 mmHg 87%
    21:00 +13°C° 0 mm 2 m/S 738 mmHg 89%
    22:00 +13°C° 0 mm 1 m/S 738 mmHg 90%
    23:00 +13°C° 0 mm 1 m/S 738 mmHg 90%

    21 Oktober, Samstag

    Zeit Temperatur Niederschläge Wind Luftdruck Luftfeuchtigkeit
    00:00 +13°C° 0 mm 1 m/S 738 mmHg 89%
    01:00 +13°C° 0 mm 1 m/S 738 mmHg 89%
    02:00 +13°C° 0 mm 2 m/S 738 mmHg 89%
    03:00 +13°C° 0 mm 2 m/S 738 mmHg 88%
    04:00 +14°C° 0 mm 2 m/S 738 mmHg 88%
    05:00 +13°C° 0 mm 2 m/S 737 mmHg 89%
    06:00 +13°C° 0 mm 2 m/S 737 mmHg 89%
    07:00 +12°C° 0 mm 2 m/S 737 mmHg 90%
    08:00 +13°C° 0 mm 3 m/S 737 mmHg 85%
    09:00 +14°C° 0 mm 4 m/S 737 mmHg 79%
    10:00 +17°C° 0 mm 4 m/S 737 mmHg 74%
    11:00 +17°C° 0 mm 4 m/S 737 mmHg 73%
    12:00 +17°C° 0 mm 5 m/S 737 mmHg 72%
    13:00 +17°C° 0 mm 5 m/S 737 mmHg 71%
    14:00 +16°C° 0,2 mm 5 m/S 738 mmHg 75%
    15:00 +15°C° 0,2 mm 4 m/S 738 mmHg 79%
    16:00 +14°C° 0,2 mm 4 m/S 738 mmHg 84%
    17:00 +13°C° 0,1 mm 4 m/S 738 mmHg 84%
    18:00 +13°C° 0,1 mm 4 m/S 738 mmHg 84%
    19:00 +12°C° 0,1 mm 4 m/S 739 mmHg 84%
    20:00 +12°C° 0 mm 4 m/S 739 mmHg 84%
    21:00 +12°C° 0 mm 4 m/S 739 mmHg 83%
    22:00 +12°C° 0 mm 4 m/S 739 mmHg 83%
    23:00 +11°C° 0 mm 4 m/S 739 mmHg 84%

    22 Oktober, Sonntag

    Zeit Temperatur Niederschläge Wind Luftdruck Luftfeuchtigkeit
    00:00 +11°C° 0 mm 4 m/S 739 mmHg 85%
    01:00 +10°C° 0 mm 4 m/S 739 mmHg 86%
    02:00 +10°C° 0 mm 4 m/S 739 mmHg 86%
    03:00 +8°C° 0 mm 4 m/S 739 mmHg 86%
    04:00 +8°C° 0 mm 4 m/S 739 mmHg 86%
    05:00 +8°C° 0 mm 4 m/S 739 mmHg 86%
    06:00 +8°C° 0 mm 5 m/S 739 mmHg 85%
    07:00 +8°C° 0 mm 5 m/S 739 mmHg 84%
    08:00 +8°C° 0,1 mm 5 m/S 739 mmHg 83%
    09:00 +8°C° 0,1 mm 5 m/S 740 mmHg 81%
    10:00 +8°C° 0,1 mm 5 m/S 740 mmHg 80%
    11:00 +8°C° 0,1 mm 5 m/S 740 mmHg 79%
    12:00 +8°C° 0,1 mm 5 m/S 740 mmHg 78%
    13:00 +9°C° 0,1 mm 5 m/S 741 mmHg 78%
    14:00 +9°C° 0,1 mm 5 m/S 741 mmHg 77%
    15:00 +10°C° 0,1 mm 4 m/S 741 mmHg 77%
    16:00 +10°C° 0,1 mm 4 m/S 741 mmHg 76%
    17:00 +8°C° 0 mm 4 m/S 742 mmHg 80%
    18:00 +8°C° 0 mm 3 m/S 742 mmHg 83%
    19:00 +7°C° 0 mm 3 m/S 743 mmHg 87%
    20:00 +7°C° 0 mm 3 m/S 743 mmHg 88%
    21:00 +7°C° 0 mm 2 m/S 743 mmHg 89%
    22:00 +6°C° 0 mm 2 m/S 744 mmHg 90%
    23:00 +6°C° 0 mm 2 m/S 744 mmHg 90%

    23 Oktober, Montag

    Zeit Temperatur Niederschläge Wind Luftdruck Luftfeuchtigkeit
    00:00 +5°C° 0 mm 2 m/S 744 mmHg 91%
    01:00 +5°C° 0 mm 2 m/S 745 mmHg 91%
    02:00 +5°C° 0 mm 2 m/S 745 mmHg 92%
    03:00 +5°C° 0 mm 2 m/S 745 mmHg 92%
    04:00 +5°C° 0 mm 2 m/S 745 mmHg 92%
    05:00 +4°C° 0 mm 2 m/S 745 mmHg 93%
    06:00 +4°C° 0 mm 2 m/S 745 mmHg 93%
    07:00 +4°C° 0 mm 2 m/S 746 mmHg 93%
    08:00 +5°C° 0 mm 2 m/S 746 mmHg 89%
    09:00 +7°C° 0 mm 2 m/S 746 mmHg 84%
    10:00 +8°C° 0 mm 2 m/S 746 mmHg 79%
    11:00 +9°C° 0 mm 2 m/S 746 mmHg 74%
    12:00 +11°C° 0 mm 3 m/S 746 mmHg 68%
    13:00 +12°C° 0 mm 3 m/S 746 mmHg 63%
    14:00 +12°C° 0 mm 3 m/S 745 mmHg 64%
    15:00 +13°C° 0 mm 2 m/S 745 mmHg 65%
    16:00 +13°C° 0 mm 2 m/S 745 mmHg 66%
    17:00 +10°C° 0 mm 2 m/S 745 mmHg 72%
    18:00 +10°C° 0 mm 1 m/S 745 mmHg 77%
    19:00 +9°C° 0 mm 1 m/S 745 mmHg 83%
    20:00 +8°C° 0 mm 1 m/S 745 mmHg 84%
    21:00 +8°C° 0 mm 1 m/S 745 mmHg 85%
    22:00 +8°C° 0 mm 1 m/S 745 mmHg 85%
    23:00 +8°C° 0 mm 1 m/S 745 mmHg 85%
    Mehr zeigen